Time,TemperatureF,DewpointF,PressureIn,WindDirection,WindDirectionDegrees,WindSpeedMPH,WindSpeedGustMPH,Humidity,HourlyPrecipIn,Conditions,Clouds,dailyrainin,SoftwareType,DateUTC
2013-05-11 00:03:00,61.3,27.1,29.83,North,0,0.0,0.0,27,0.00,,---,0.00,VWS V14.01,2013-05-11 07:03:00,
2013-05-11 00:09:00,61.0,26.8,29.83,North,0,0.0,0.0,27,0.00,,---,0.00,VWS V14.01,2013-05-11 07:09:00,
2013-05-11 00:15:00,60.8,26.6,29.83,North,0,0.0,0.0,27,0.00,,---,0.00,VWS V14.01,2013-05-11 07:15:00,
2013-05-11 00:20:00,60.6,27.4,29.83,North,0,0.0,0.0,28,0.00,,---,0.00,VWS V14.01,2013-05-11 07:20:00,
2013-05-11 00:26:00,60.3,27.0,29.83,North,0,0.0,0.0,28,0.00,,---,0.00,VWS V14.01,2013-05-11 07:26:00,
2013-05-11 00:31:00,59.9,26.7,29.83,North,0,0.0,0.0,28,0.00,,---,0.00,VWS V14.01,2013-05-11 07:31:00,
2013-05-11 00:37:00,59.7,27.4,29.83,North,0,0.0,0.0,29,0.00,,---,0.00,VWS V14.01,2013-05-11 07:37:00,
2013-05-11 00:42:00,59.7,27.4,29.83,North,0,0.0,0.0,29,0.00,,---,0.00,VWS V14.01,2013-05-11 07:42:00,
2013-05-11 00:47:00,59.9,27.6,29.83,North,0,0.0,0.0,29,0.00,,---,0.00,VWS V14.01,2013-05-11 07:47:00,
2013-05-11 00:53:00,60.1,27.7,29.83,North,0,0.0,0.0,29,0.00,,---,0.00,VWS V14.01,2013-05-11 07:53:00,
2013-05-11 00:59:00,59.7,28.3,29.83,North,0,0.0,0.0,30,0.00,,---,0.00,VWS V14.01,2013-05-11 07:59:00,
2013-05-11 01:04:00,59.7,27.4,29.83,North,0,0.0,0.0,29,0.00,,---,0.00,VWS V14.01,2013-05-11 08:04:00,
2013-05-11 01:09:00,59.5,28.1,29.83,North,0,0.0,0.0,30,0.00,,---,0.00,VWS V14.01,2013-05-11 08:09:00,
2013-05-11 01:15:00,59.5,28.1,29.85,North,0,0.0,0.0,30,0.00,,---,0.00,VWS V14.01,2013-05-11 08:15:00,
2013-05-11 01:20:00,59.5,28.1,29.85,North,0,0.0,0.0,30,0.00,,---,0.00,VWS V14.01,2013-05-11 08:20:00,
2013-05-11 01:26:00,59.4,27.9,29.85,North,0,0.0,0.0,30,0.00,,---,0.00,VWS V14.01,2013-05-11 08:26:00,
2013-05-11 01:31:00,59.2,27.8,29.85,North,0,0.0,0.0,30,0.00,,---,0.00,VWS V14.01,2013-05-11 08:31:00,
2013-05-11 01:37:00,59.0,28.4,29.85,North,0,0.0,0.0,31,0.00,,---,0.00,VWS V14.01,2013-05-11 08:37:00,
2013-05-11 01:42:00,59.2,28.6,29.85,North,0,0.0,0.0,31,0.00,,---,0.00,VWS V14.01,2013-05-11 08:42:00,
2013-05-11 01:47:00,59.2,28.6,29.85,North,0,0.0,0.0,31,0.00,,---,0.00,VWS V14.01,2013-05-11 08:47:00,
2013-05-11 01:52:00,59.2,29.4,29.85,North,0,0.0,0.0,32,0.00,,---,0.00,VWS V14.01,2013-05-11 08:52:00,
2013-05-11 01:57:00,59.4,29.5,29.85,North,0,0.0,0.0,32,0.00,,---,0.00,VWS V14.01,2013-05-11 08:57:00,
2013-05-11 02:03:00,59.4,30.3,29.85,North,0,0.0,0.0,33,0.00,,---,0.00,VWS V14.01,2013-05-11 09:03:00,
2013-05-11 02:09:00,59.2,30.9,29.85,North,0,0.0,0.0,34,0.00,,---,0.00,VWS V14.01,2013-05-11 09:09:00,
2013-05-11 02:14:00,59.0,30.7,29.83,North,0,0.0,0.0,34,0.00,,---,0.00,VWS V14.01,2013-05-11 09:14:00,
2013-05-11 02:19:00,58.8,31.2,29.83,North,0,0.0,0.0,35,0.00,,---,0.00,VWS V14.01,2013-05-11 09:19:00,
2013-05-11 02:25:00,58.5,30.9,29.83,North,0,0.0,0.0,35,0.00,,---,0.00,VWS V14.01,2013-05-11 09:25:00,
2013-05-11 02:30:00,58.1,30.6,29.85,North,0,0.0,0.0,35,0.00,,---,0.00,VWS V14.01,2013-05-11 09:30:00,
2013-05-11 02:36:00,57.6,30.8,29.85,North,0,0.0,0.0,36,0.00,,---,0.00,VWS V14.01,2013-05-11 09:36:00,
2013-05-11 02:41:00,57.0,31.0,29.85,North,0,0.0,0.0,37,0.00,,---,0.00,VWS V14.01,2013-05-11 09:41:00,
2013-05-11 02:47:00,56.7,31.4,29.85,North,0,0.0,0.0,38,0.00,,---,0.00,VWS V14.01,2013-05-11 09:47:00,
2013-05-11 02:53:00,56.3,31.7,29.85,North,0,0.0,0.0,39,0.00,,---,0.00,VWS V14.01,2013-05-11 09:53:00,
2013-05-11 02:58:00,56.5,32.5,29.85,North,0,0.0,0.0,40,0.00,,---,0.00,VWS V14.01,2013-05-11 09:58:00,
2013-05-11 03:03:00,56.5,33.1,29.83,North,0,0.0,0.0,41,0.00,,---,0.00,VWS V14.01,2013-05-11 10:03:00,
2013-05-11 03:09:00,56.3,32.9,29.83,North,0,0.0,0.0,41,0.00,,---,0.00,VWS V14.01,2013-05-11 10:09:00,
2013-05-11 03:15:00,56.5,32.5,29.85,North,0,0.0,0.0,40,0.00,,---,0.00,VWS V14.01,2013-05-11 10:15:00,
2013-05-11 03:20:00,56.5,33.1,29.85,North,0,0.0,0.0,41,0.00,,---,0.00,VWS V14.01,2013-05-11 10:20:00,
2013-05-11 03:26:00,56.7,33.2,29.85,North,0,0.0,0.0,41,0.00,,---,0.00,VWS V14.01,2013-05-11 10:26:00,
2013-05-11 03:32:00,56.8,32.8,29.83,North,0,0.0,0.0,40,0.00,,---,0.00,VWS V14.01,2013-05-11 10:32:00,
2013-05-11 03:38:00,57.0,32.3,29.83,North,0,0.0,0.0,39,0.00,,---,0.00,VWS V14.01,2013-05-11 10:38:00,
2013-05-11 03:44:00,57.2,31.8,29.83,North,0,0.0,0.0,38,0.00,,---,0.00,VWS V14.01,2013-05-11 10:44:00,
2013-05-11 03:49:00,57.4,32.0,29.83,North,0,0.0,0.0,38,0.00,,---,0.00,VWS V14.01,2013-05-11 10:49:00,
2013-05-11 03:55:00,57.2,31.8,29.83,North,0,0.0,0.0,38,0.00,,---,0.00,VWS V14.01,2013-05-11 10:55:00,
2013-05-11 04:00:00,57.0,31.7,29.83,North,0,0.0,0.0,38,0.00,,---,0.00,VWS V14.01,2013-05-11 11:00:00,
2013-05-11 04:05:00,57.0,31.7,29.83,North,0,0.0,0.0,38,0.00,,---,0.00,VWS V14.01,2013-05-11 11:05:00,
2013-05-11 04:10:00,56.8,31.5,29.83,North,0,0.0,0.0,38,0.00,,---,0.00,VWS V14.01,2013-05-11 11:10:00,
2013-05-11 04:15:00,56.8,31.5,29.83,North,0,0.0,0.0,38,0.00,,---,0.00,VWS V14.01,2013-05-11 11:15:00,
2013-05-11 04:21:00,56.7,31.4,29.83,North,0,0.0,0.0,38,0.00,,---,0.00,VWS V14.01,2013-05-11 11:21:00,
2013-05-11 04:26:00,56.7,31.4,29.83,North,0,0.0,0.0,38,0.00,,---,0.00,VWS V14.01,2013-05-11 11:26:00,
2013-05-11 04:32:00,56.5,31.2,29.83,North,0,0.0,0.0,38,0.00,,---,0.00,VWS V14.01,2013-05-11 11:32:00,
2013-05-11 04:38:00,56.7,31.4,29.83,North,0,0.0,0.0,38,0.00,,---,0.00,VWS V14.01,2013-05-11 11:38:00,
2013-05-11 04:43:00,56.5,31.2,29.83,North,0,0.0,0.0,38,0.00,,---,0.00,VWS V14.01,2013-05-11 11:43:00,
2013-05-11 04:49:00,56.7,31.4,29.83,North,0,0.0,0.0,38,0.00,,---,0.00,VWS V14.01,2013-05-11 11:49:00,
2013-05-11 04:54:00,56.7,30.7,29.83,North,0,0.0,0.0,37,0.00,,---,0.00,VWS V14.01,2013-05-11 11:54:00,
2013-05-11 05:00:00,56.8,28.8,29.83,North,0,0.0,0.0,34,0.00,,---,0.00,VWS V14.01,2013-05-11 12:00:00,
2013-05-11 05:06:00,56.8,24.1,29.83,North,0,0.0,0.0,28,0.00,,---,0.00,VWS V14.01,2013-05-11 12:06:00,
2013-05-11 05:11:00,56.8,23.2,29.83,North,0,0.0,0.0,27,0.00,,---,0.00,VWS V14.01,2013-05-11 12:11:00,
2013-05-11 05:16:00,56.8,22.3,29.83,North,0,0.0,0.0,26,0.00,,---,0.00,VWS V14.01,2013-05-11 12:16:00,
2013-05-11 05:22:00,56.7,22.2,29.83,North,0,0.0,0.0,26,0.00,,---,0.00,VWS V14.01,2013-05-11 12:22:00,
2013-05-11 05:28:00,56.3,21.9,29.83,North,0,0.0,0.0,26,0.00,,---,0.00,VWS V14.01,2013-05-11 12:28:00,
2013-05-11 05:34:00,56.1,21.7,29.83,North,0,0.0,0.0,26,0.00,,---,0.00,VWS V14.01,2013-05-11 12:34:00,
2013-05-11 05:40:00,55.9,21.6,29.83,North,0,0.0,0.0,26,0.00,,---,0.00,VWS V14.01,2013-05-11 12:40:00,
2013-05-11 05:45:00,55.9,21.6,29.83,North,0,0.0,0.0,26,0.00,,---,0.00,VWS V14.01,2013-05-11 12:45:00,
2013-05-11 05:51:00,55.8,21.4,29.83,North,0,0.0,0.0,26,0.00,,---,0.00,VWS V14.01,2013-05-11 12:51:00,
2013-05-11 05:57:00,55.8,21.4,29.83,North,0,0.0,0.0,26,0.00,,---,0.00,VWS V14.01,2013-05-11 12:57:00,
2013-05-11 06:03:00,55.8,21.4,29.83,North,0,0.0,0.0,26,0.00,,---,0.00,VWS V14.01,2013-05-11 13:03:00,
2013-05-11 06:08:00,55.8,21.4,29.83,North,0,0.0,0.0,26,0.00,,---,0.00,VWS V14.01,2013-05-11 13:08:00,
2013-05-11 06:13:00,55.8,22.3,29.83,North,0,0.0,0.0,27,0.00,,---,0.00,VWS V14.01,2013-05-11 13:13:00,
2013-05-11 06:19:00,55.9,21.6,29.83,North,0,0.0,0.0,26,0.00,,---,0.00,VWS V14.01,2013-05-11 13:19:00,
2013-05-11 06:24:00,55.9,21.6,29.83,North,0,0.0,0.0,26,0.00,,---,0.00,VWS V14.01,2013-05-11 13:24:00,
2013-05-11 06:30:00,56.1,21.7,29.83,North,0,0.0,0.0,26,0.00,,---,0.00,VWS V14.01,2013-05-11 13:30:00,
2013-05-11 06:35:00,56.3,21.9,29.83,North,0,0.0,0.0,26,0.00,,---,0.00,VWS V14.01,2013-05-11 13:35:00,
2013-05-11 06:41:00,56.3,21.9,29.83,North,0,0.0,0.0,26,0.00,,---,0.00,VWS V14.01,2013-05-11 13:41:00,
2013-05-11 06:46:00,56.5,22.0,29.83,North,0,0.0,0.0,26,0.00,,---,0.00,VWS V14.01,2013-05-11 13:46:00,
2013-05-11 06:51:00,56.7,22.2,29.83,North,0,0.0,0.0,26,0.00,,---,0.00,VWS V14.01,2013-05-11 13:51:00,
2013-05-11 06:56:00,57.0,22.5,29.83,North,0,0.0,0.0,26,0.00,,---,0.00,VWS V14.01,2013-05-11 13:56:00,
2013-05-11 07:01:00,57.4,21.9,29.83,North,0,0.0,0.0,25,0.00,,---,0.00,VWS V14.01,2013-05-11 14:01:00,
2013-05-11 07:07:00,57.6,22.0,29.83,North,0,0.0,0.0,25,0.00,,---,0.00,VWS V14.01,2013-05-11 14:07:00,
2013-05-11 07:13:00,57.7,22.2,29.83,North,0,0.0,0.0,25,0.00,,---,0.00,VWS V14.01,2013-05-11 14:13:00,
2013-05-11 07:18:00,57.9,22.3,29.83,North,0,0.0,0.0,25,0.00,,---,0.00,VWS V14.01,2013-05-11 14:18:00,
2013-05-11 07:24:00,58.5,22.8,29.83,North,0,0.0,0.0,25,0.00,,---,0.00,VWS V14.01,2013-05-11 14:24:00,
2013-05-11 07:29:00,58.5,22.8,29.83,North,0,0.0,0.0,25,0.00,,---,0.00,VWS V14.01,2013-05-11 14:29:00,
2013-05-11 07:34:00,58.5,22.8,29.83,North,0,0.0,0.0,25,0.00,,---,0.00,VWS V14.01,2013-05-11 14:34:00,
2013-05-11 07:40:00,58.8,23.1,29.83,North,0,0.0,0.0,25,0.00,,---,0.00,VWS V14.01,2013-05-11 14:40:00,
2013-05-11 07:45:00,58.8,23.1,29.83,North,0,0.0,0.0,25,0.00,,---,0.00,VWS V14.01,2013-05-11 14:45:00,
2013-05-11 07:51:00,58.8,23.1,29.83,North,0,0.0,0.0,25,0.00,,---,0.00,VWS V14.01,2013-05-11 14:51:00,
2013-05-11 07:57:00,58.8,23.1,29.83,North,0,0.0,0.0,25,0.00,,---,0.00,VWS V14.01,2013-05-11 14:57:00,
2013-05-11 08:02:00,58.8,23.1,29.83,North,0,0.0,0.0,25,0.00,,---,0.00,VWS V14.01,2013-05-11 15:02:00,
2013-05-11 08:07:00,58.8,23.1,29.83,North,0,0.0,0.0,25,0.00,,---,0.00,VWS V14.01,2013-05-11 15:07:00,
2013-05-11 08:13:00,59.0,22.3,29.83,North,0,0.0,0.0,24,0.00,,---,0.00,VWS V14.01,2013-05-11 15:13:00,
2013-05-11 08:19:00,59.5,22.7,29.83,North,0,0.0,0.0,24,0.00,,---,0.00,VWS V14.01,2013-05-11 15:19:00,
2013-05-11 08:24:00,60.1,23.2,29.83,North,0,0.0,0.0,24,0.00,,---,0.00,VWS V14.01,2013-05-11 15:24:00,
2013-05-11 08:30:00,60.6,23.6,29.83,North,0,0.0,0.0,24,0.00,,---,0.00,VWS V14.01,2013-05-11 15:30:00,
2013-05-11 08:35:00,60.6,23.6,29.83,North,0,0.0,0.0,24,0.00,,---,0.00,VWS V14.01,2013-05-11 15:35:00,
2013-05-11 08:40:00,61.0,24.0,29.83,North,0,0.0,0.0,24,0.00,,---,0.00,VWS V14.01,2013-05-11 15:40:00,
2013-05-11 08:45:00,61.2,24.1,29.83,North,0,0.0,0.0,24,0.00,,---,0.00,VWS V14.01,2013-05-11 15:45:00,
2013-05-11 08:50:00,61.3,21.1,29.83,North,0,0.0,0.0,21,0.00,,---,0.00,VWS V14.01,2013-05-11 15:50:00,
2013-05-11 08:55:00,61.3,21.1,29.83,North,0,0.0,0.0,21,0.00,,---,0.00,VWS V14.01,2013-05-11 15:55:00,
2013-05-11 09:01:00,61.7,21.4,29.83,North,0,0.0,0.0,21,0.00,,---,0.00,VWS V14.01,2013-05-11 16:01:00,
2013-05-11 09:07:00,62.1,21.7,29.83,North,0,0.0,0.0,21,0.00,,---,0.00,VWS V14.01,2013-05-11 16:07:00,
2013-05-11 09:12:00,62.4,22.0,29.83,North,0,0.0,0.0,21,0.00,,---,0.00,VWS V14.01,2013-05-11 16:12:00,
2013-05-11 09:17:00,63.1,22.6,29.83,North,0,0.0,0.0,21,0.00,,---,0.00,VWS V14.01,2013-05-11 16:17:00,
2013-05-11 09:23:00,64.8,22.8,29.83,North,0,0.0,0.0,20,0.00,,---,0.00,VWS V14.01,2013-05-11 16:23:00,
2013-05-11 09:28:00,65.7,23.5,29.83,North,0,0.0,0.0,20,0.00,,---,0.00,VWS V14.01,2013-05-11 16:28:00,
2013-05-11 09:33:00,66.0,23.8,29.80,North,0,0.0,0.0,20,0.00,,---,0.00,VWS V14.01,2013-05-11 16:33:00,
2013-05-11 09:39:00,66.2,24.0,29.80,North,0,0.0,0.0,20,0.00,,---,0.00,VWS V14.01,2013-05-11 16:39:00,
2013-05-11 09:45:00,66.6,24.3,29.80,North,0,0.0,0.0,20,0.00,,---,0.00,VWS V14.01,2013-05-11 16:45:00,
2013-05-11 09:50:00,66.4,24.1,29.80,North,0,0.0,0.0,20,0.00,,---,0.00,VWS V14.01,2013-05-11 16:50:00,
2013-05-11 09:55:00,66.2,24.0,29.80,North,0,0.0,0.0,20,0.00,,---,0.00,VWS V14.01,2013-05-11 16:55:00,
2013-05-11 10:01:00,65.8,23.7,29.80,North,0,0.0,0.0,20,0.00,,---,0.00,VWS V14.01,2013-05-11 17:01:00,
2013-05-11 10:06:00,65.3,23.2,29.80,North,0,0.0,0.0,20,0.00,,---,0.00,VWS V14.01,2013-05-11 17:06:00,
2013-05-11 10:12:00,66.0,23.8,29.80,North,0,0.0,0.0,20,0.00,,---,0.00,VWS V14.01,2013-05-11 17:12:00,
2013-05-11 10:18:00,66.7,24.4,29.80,North,0,0.0,0.0,20,0.00,,---,0.00,VWS V14.01,2013-05-11 17:18:00,
2013-05-11 10:23:00,66.9,24.6,29.80,North,0,0.0,0.0,20,0.00,,---,0.00,VWS V14.01,2013-05-11 17:23:00,
2013-05-11 10:29:00,66.4,24.1,29.80,North,0,0.0,0.0,20,0.00,,---,0.00,VWS V14.01,2013-05-11 17:29:00,
2013-05-11 10:34:00,66.6,24.3,29.80,North,0,0.0,0.0,20,0.00,,---,0.00,VWS V14.01,2013-05-11 17:34:00,
2013-05-11 10:39:00,67.6,25.2,29.80,North,0,0.0,0.0,20,0.00,,---,0.00,VWS V14.01,2013-05-11 17:39:00,
2013-05-11 10:44:00,68.2,25.6,29.80,North,0,0.0,0.0,20,0.00,,---,0.00,VWS V14.01,2013-05-11 17:44:00,
2013-05-11 10:49:00,67.8,25.3,29.80,North,0,0.0,0.0,20,0.00,,---,0.00,VWS V14.01,2013-05-11 17:49:00,
2013-05-11 10:55:00,67.8,25.3,29.80,North,0,0.0,0.0,20,0.00,,---,0.00,VWS V14.01,2013-05-11 17:55:00,
2013-05-11 11:01:00,69.3,26.5,29.80,North,0,0.0,0.0,20,0.00,,---,0.00,VWS V14.01,2013-05-11 18:01:00,
2013-05-11 11:07:00,69.4,26.7,29.80,North,0,0.0,0.0,20,0.00,,---,0.00,VWS V14.01,2013-05-11 18:07:00,
2013-05-11 11:12:00,69.8,25.7,29.80,North,0,0.0,0.0,19,0.00,,---,0.00,VWS V14.01,2013-05-11 18:12:00,
2013-05-11 11:17:00,70.3,26.2,29.80,North,0,0.0,0.0,19,0.00,,---,0.00,VWS V14.01,2013-05-11 18:17:00,
2013-05-11 11:23:00,70.5,26.3,29.80,North,0,0.0,0.0,19,0.00,,---,0.00,VWS V14.01,2013-05-11 18:23:00,
2013-05-11 11:28:00,69.4,26.7,29.80,North,0,0.0,0.0,20,0.00,,---,0.00,VWS V14.01,2013-05-11 18:28:00,
2013-05-11 11:34:00,69.6,26.8,29.80,North,0,0.0,0.0,20,0.00,,---,0.00,VWS V14.01,2013-05-11 18:34:00,
2013-05-11 11:39:00,70.3,26.2,29.80,North,0,0.0,0.0,19,0.00,,---,0.00,VWS V14.01,2013-05-11 18:39:00,
2013-05-11 11:45:00,71.2,26.9,29.80,North,0,0.0,0.0,19,0.00,,---,0.00,VWS V14.01,2013-05-11 18:45:00,
2013-05-11 11:50:00,71.8,27.3,29.80,North,0,0.0,0.0,19,0.00,,---,0.00,VWS V14.01,2013-05-11 18:50:00,
2013-05-11 11:55:00,72.1,27.6,29.80,North,0,0.0,0.0,19,0.00,,---,0.00,VWS V14.01,2013-05-11 18:55:00,
2013-05-11 12:00:00,73.0,24.2,29.80,North,0,0.0,0.0,16,0.00,,---,0.00,VWS V14.01,2013-05-11 19:00:00,
2013-05-11 12:05:00,73.4,24.5,29.80,North,0,0.0,0.0,16,0.00,,---,0.00,VWS V14.01,2013-05-11 19:05:00,
2013-05-11 12:11:00,73.0,24.2,29.80,North,0,0.0,0.0,16,0.00,,---,0.00,VWS V14.01,2013-05-11 19:11:00,
2013-05-11 12:17:00,73.6,24.7,29.77,North,0,0.0,0.0,16,0.00,,---,0.00,VWS V14.01,2013-05-11 19:17:00,
2013-05-11 12:22:00,74.5,25.4,29.77,North,0,0.0,0.0,16,0.00,,---,0.00,VWS V14.01,2013-05-11 19:22:00,
2013-05-11 12:28:00,75.6,24.7,29.77,North,0,0.0,0.0,15,0.00,,---,0.00,VWS V14.01,2013-05-11 19:28:00,
2013-05-11 12:33:00,75.2,24.4,29.77,North,0,0.0,0.0,15,0.00,,---,0.00,VWS V14.01,2013-05-11 19:33:00,
2013-05-11 12:38:00,75.6,24.7,29.77,North,0,0.0,0.0,15,0.00,,---,0.00,VWS V14.01,2013-05-11 19:38:00,
2013-05-11 12:43:00,76.3,25.3,29.77,North,0,0.0,0.0,15,0.00,,---,0.00,VWS V14.01,2013-05-11 19:43:00,
2013-05-11 12:48:00,77.5,26.3,29.77,North,0,0.0,0.0,15,0.00,,---,0.00,VWS V14.01,2013-05-11 19:48:00,
2013-05-11 12:54:00,77.4,26.1,29.77,North,0,0.0,0.0,15,0.00,,---,0.00,VWS V14.01,2013-05-11 19:54:00,
2013-05-11 12:59:00,77.7,26.4,29.74,North,0,0.0,0.0,15,0.00,,---,0.00,VWS V14.01,2013-05-11 19:59:00,
2013-05-11 13:05:00,75.9,25.0,29.74,North,0,0.0,0.0,15,0.00,,---,0.00,VWS V14.01,2013-05-11 20:05:00,
2013-05-11 13:10:00,75.2,24.4,29.74,North,0,0.0,0.0,15,0.00,,---,0.00,VWS V14.01,2013-05-11 20:10:00,
2013-05-11 13:16:00,75.2,24.4,29.77,North,0,0.0,0.0,15,0.00,,---,0.00,VWS V14.01,2013-05-11 20:16:00,
2013-05-11 13:22:00,75.9,25.0,29.77,North,0,0.0,0.0,15,0.00,,---,0.00,VWS V14.01,2013-05-11 20:22:00,
2013-05-11 13:27:00,76.8,25.7,29.77,North,0,0.0,0.0,15,0.00,,---,0.00,VWS V14.01,2013-05-11 20:27:00,
2013-05-11 13:33:00,77.7,26.4,29.77,North,0,0.0,0.0,15,0.00,,---,0.00,VWS V14.01,2013-05-11 20:33:00,
2013-05-11 13:38:00,78.6,27.1,29.77,North,0,0.0,0.0,15,0.00,,---,0.00,VWS V14.01,2013-05-11 20:38:00,
2013-05-11 13:44:00,78.4,27.0,29.77,North,0,0.0,0.0,15,0.00,,---,0.00,VWS V14.01,2013-05-11 20:44:00,
2013-05-11 13:49:00,77.7,26.4,29.77,North,0,0.0,0.0,15,0.00,,---,0.00,VWS V14.01,2013-05-11 20:49:00,
2013-05-11 13:54:00,77.9,26.6,29.77,North,0,0.0,0.0,15,0.00,,---,0.00,VWS V14.01,2013-05-11 20:54:00,
2013-05-11 13:59:00,78.4,27.0,29.74,North,0,0.0,0.0,15,0.00,,---,0.00,VWS V14.01,2013-05-11 20:59:00,
2013-05-11 14:05:00,79.0,27.4,29.74,North,0,0.0,0.0,15,0.00,,---,0.00,VWS V14.01,2013-05-11 21:05:00,
2013-05-11 14:11:00,79.3,27.7,29.74,North,0,0.0,0.0,15,0.00,,---,0.00,VWS V14.01,2013-05-11 21:11:00,
2013-05-11 14:16:00,79.7,28.0,29.74,North,0,0.0,0.0,15,0.00,,---,0.00,VWS V14.01,2013-05-11 21:16:00,
2013-05-11 14:21:00,79.5,27.9,29.74,North,0,0.0,0.0,15,0.00,,---,0.00,VWS V14.01,2013-05-11 21:21:00,
2013-05-11 14:27:00,79.7,28.0,29.74,North,0,0.0,0.0,15,0.00,,---,0.00,VWS V14.01,2013-05-11 21:27:00,
2013-05-11 14:32:00,79.3,27.7,29.74,North,0,0.0,0.0,15,0.00,,---,0.00,VWS V14.01,2013-05-11 21:32:00,
2013-05-11 14:37:00,78.4,27.0,29.74,North,0,0.0,0.0,15,0.00,,---,0.00,VWS V14.01,2013-05-11 21:37:00,
2013-05-11 14:43:00,79.0,27.4,29.74,North,0,0.0,0.0,15,0.00,,---,0.00,VWS V14.01,2013-05-11 21:43:00,
2013-05-11 14:48:00,79.0,27.4,29.74,North,0,0.0,0.0,15,0.00,,---,0.00,VWS V14.01,2013-05-11 21:48:00,
2013-05-11 14:53:00,78.8,27.3,29.74,North,0,0.0,0.0,15,0.00,,---,0.00,VWS V14.01,2013-05-11 21:53:00,
2013-05-11 14:58:00,79.0,27.4,29.74,North,0,0.0,0.0,15,0.00,,---,0.00,VWS V14.01,2013-05-11 21:58:00,
2013-05-11 15:03:00,78.4,27.0,29.74,North,0,0.0,0.0,15,0.00,,---,0.00,VWS V14.01,2013-05-11 22:03:00,
2013-05-11 15:08:00,78.1,26.7,29.74,North,0,0.0,0.0,15,0.00,,---,0.00,VWS V14.01,2013-05-11 22:08:00,
2013-05-11 15:13:00,78.6,27.1,29.74,North,0,0.0,0.0,15,0.00,,---,0.00,VWS V14.01,2013-05-11 22:13:00,
2013-05-11 15:19:00,79.7,28.0,29.74,North,0,0.0,0.0,15,0.00,,---,0.00,VWS V14.01,2013-05-11 22:19:00,
2013-05-11 15:24:00,79.7,28.0,29.74,North,0,0.0,0.0,15,0.00,,---,0.00,VWS V14.01,2013-05-11 22:24:00,
2013-05-11 15:30:00,80.1,28.3,29.71,North,0,0.0,0.0,15,0.00,,---,0.00,VWS V14.01,2013-05-11 22:30:00,
2013-05-11 15:36:00,80.6,27.0,29.71,North,0,0.0,0.0,14,0.00,,---,0.00,VWS V14.01,2013-05-11 22:36:00,
2013-05-11 15:41:00,81.0,27.3,29.71,North,0,0.0,0.0,14,0.00,,---,0.00,VWS V14.01,2013-05-11 22:41:00,
2013-05-11 15:46:00,81.5,27.8,29.71,North,0,0.0,0.0,14,0.00,,---,0.00,VWS V14.01,2013-05-11 22:46:00,
2013-05-11 15:51:00,81.5,27.8,29.71,North,0,0.0,0.0,14,0.00,,---,0.00,VWS V14.01,2013-05-11 22:51:00,
2013-05-11 15:56:00,80.6,27.0,29.71,North,0,0.0,0.0,14,0.00,,---,0.00,VWS V14.01,2013-05-11 22:56:00,
2013-05-11 16:02:00,81.3,27.6,29.71,North,0,0.0,0.0,14,0.00,,---,0.00,VWS V14.01,2013-05-11 23:02:00,
2013-05-11 16:07:00,81.5,27.8,29.71,North,0,0.0,0.0,14,0.00,,---,0.00,VWS V14.01,2013-05-11 23:07:00,
2013-05-11 16:13:00,81.0,27.3,29.71,North,0,0.0,0.0,14,0.00,,---,0.00,VWS V14.01,2013-05-11 23:13:00,
2013-05-11 16:19:00,80.8,27.2,29.71,North,0,0.0,0.0,14,0.00,,---,0.00,VWS V14.01,2013-05-11 23:19:00,
2013-05-11 16:24:00,81.3,27.6,29.71,North,0,0.0,0.0,14,0.00,,---,0.00,VWS V14.01,2013-05-11 23:24:00,
2013-05-11 16:30:00,82.0,28.2,29.71,North,0,0.0,0.0,14,0.00,,---,0.00,VWS V14.01,2013-05-11 23:30:00,
2013-05-11 16:35:00,82.0,28.2,29.71,North,0,0.0,0.0,14,0.00,,---,0.00,VWS V14.01,2013-05-11 23:35:00,
2013-05-11 16:40:00,81.9,28.0,29.71,North,0,0.0,0.0,14,0.00,,---,0.00,VWS V14.01,2013-05-11 23:40:00,
2013-05-11 16:45:00,81.7,27.9,29.71,North,0,0.0,0.0,14,0.00,,---,0.00,VWS V14.01,2013-05-11 23:45:00,
2013-05-11 16:51:00,81.7,27.9,29.71,North,0,0.0,0.0,14,0.00,,---,0.00,VWS V14.01,2013-05-11 23:51:00,
2013-05-11 16:56:00,80.1,28.3,29.71,North,0,0.0,0.0,15,0.00,,---,0.00,VWS V14.01,2013-05-11 23:56:00,
2013-05-11 17:02:00,79.3,27.7,29.71,North,0,0.0,0.0,15,0.00,,---,0.00,VWS V14.01,2013-05-12 00:02:00,
2013-05-11 17:07:00,79.2,27.6,29.71,North,0,0.0,0.0,15,0.00,,---,0.00,VWS V14.01,2013-05-12 00:07:00,
2013-05-11 17:13:00,79.2,27.6,29.71,North,0,0.0,0.0,15,0.00,,---,0.00,VWS V14.01,2013-05-12 00:13:00,
2013-05-11 17:18:00,79.2,27.6,29.71,North,0,0.0,0.0,15,0.00,,---,0.00,VWS V14.01,2013-05-12 00:18:00,
2013-05-11 17:23:00,79.2,27.6,29.71,North,0,0.0,0.0,15,0.00,,---,0.00,VWS V14.01,2013-05-12 00:23:00,
2013-05-11 17:29:00,79.3,27.7,29.68,North,0,0.0,0.0,15,0.00,,---,0.00,VWS V14.01,2013-05-12 00:29:00,
2013-05-11 17:35:00,79.3,27.7,29.68,North,0,0.0,0.0,15,0.00,,---,0.00,VWS V14.01,2013-05-12 00:35:00,
2013-05-11 17:41:00,79.3,27.7,29.68,North,0,0.0,0.0,15,0.00,,---,0.00,VWS V14.01,2013-05-12 00:41:00,
2013-05-11 17:47:00,79.9,28.1,29.68,North,0,0.0,0.0,15,0.00,,---,0.00,VWS V14.01,2013-05-12 00:47:00,
2013-05-11 17:52:00,80.4,28.6,29.68,North,0,0.0,0.0,15,0.00,,---,0.00,VWS V14.01,2013-05-12 00:52:00,
2013-05-11 17:58:00,80.4,28.6,29.68,North,0,0.0,0.0,15,0.00,,---,0.00,VWS V14.01,2013-05-12 00:58:00,
2013-05-11 18:03:00,79.2,27.6,29.68,North,0,0.0,0.0,15,0.00,,---,0.00,VWS V14.01,2013-05-12 01:03:00,
2013-05-11 18:09:00,78.8,27.3,29.68,North,0,0.0,0.0,15,0.00,,---,0.00,VWS V14.01,2013-05-12 01:09:00,
2013-05-11 18:14:00,79.2,27.6,29.68,North,0,0.0,0.0,15,0.00,,---,0.00,VWS V14.01,2013-05-12 01:14:00,
2013-05-11 18:19:00,78.8,27.3,29.68,North,0,0.0,0.0,15,0.00,,---,0.00,VWS V14.01,2013-05-12 01:19:00,
2013-05-11 18:25:00,78.6,27.1,29.68,North,0,0.0,0.0,15,0.00,,---,0.00,VWS V14.01,2013-05-12 01:25:00,
2013-05-11 18:31:00,78.3,26.9,29.68,North,0,0.0,0.0,15,0.00,,---,0.00,VWS V14.01,2013-05-12 01:31:00,
2013-05-11 18:37:00,77.9,26.6,29.68,North,0,0.0,0.0,15,0.00,,---,0.00,VWS V14.01,2013-05-12 01:37:00,
2013-05-11 18:42:00,77.5,26.3,29.68,North,0,0.0,0.0,15,0.00,,---,0.00,VWS V14.01,2013-05-12 01:42:00,
2013-05-11 18:48:00,77.5,26.3,29.68,North,0,0.0,0.0,15,0.00,,---,0.00,VWS V14.01,2013-05-12 01:48:00,
2013-05-11 18:53:00,77.4,26.1,29.68,North,0,0.0,0.0,15,0.00,,---,0.00,VWS V14.01,2013-05-12 01:53:00,
2013-05-11 18:58:00,77.2,26.0,29.68,North,0,0.0,0.0,15,0.00,,---,0.00,VWS V14.01,2013-05-12 01:58:00,
2013-05-11 19:03:00,76.8,25.7,29.65,North,0,0.0,0.0,15,0.00,,---,0.00,VWS V14.01,2013-05-12 02:03:00,
2013-05-11 19:09:00,76.6,25.6,29.65,North,0,0.0,0.0,15,0.00,,---,0.00,VWS V14.01,2013-05-12 02:09:00,
2013-05-11 19:15:00,76.1,25.1,29.65,North,0,0.0,0.0,15,0.00,,---,0.00,VWS V14.01,2013-05-12 02:15:00,
2013-05-11 19:20:00,75.4,24.6,29.65,North,0,0.0,0.0,15,0.00,,---,0.00,VWS V14.01,2013-05-12 02:20:00,
2013-05-11 19:25:00,74.3,25.2,29.65,North,0,0.0,0.0,16,0.00,,---,0.00,VWS V14.01,2013-05-12 02:25:00,
2013-05-11 19:31:00,73.8,24.8,29.68,North,0,0.0,0.0,16,0.00,,---,0.00,VWS V14.01,2013-05-12 02:31:00,
2013-05-11 19:36:00,73.4,24.5,29.68,North,0,0.0,0.0,16,0.00,,---,0.00,VWS V14.01,2013-05-12 02:36:00,
2013-05-11 19:41:00,73.4,24.5,29.68,North,0,0.0,0.0,16,0.00,,---,0.00,VWS V14.01,2013-05-12 02:41:00,
2013-05-11 19:46:00,73.6,24.7,29.65,North,0,0.0,0.0,16,0.00,,---,0.00,VWS V14.01,2013-05-12 02:46:00,
2013-05-11 19:51:00,73.6,24.7,29.65,North,0,0.0,0.0,16,0.00,,---,0.00,VWS V14.01,2013-05-12 02:51:00,
2013-05-11 19:57:00,73.8,24.8,29.65,North,0,0.0,0.0,16,0.00,,---,0.00,VWS V14.01,2013-05-12 02:57:00,
2013-05-11 20:02:00,73.2,24.4,29.68,North,0,0.0,0.0,16,0.00,,---,0.00,VWS V14.01,2013-05-12 03:02:00,
2013-05-11 20:08:00,72.5,27.9,29.68,North,0,0.0,0.0,19,0.00,,---,0.00,VWS V14.01,2013-05-12 03:08:00,
2013-05-11 20:13:00,71.6,27.2,29.68,North,0,0.0,0.0,19,0.00,,---,0.00,VWS V14.01,2013-05-12 03:13:00,
2013-05-11 20:19:00,70.7,26.5,29.68,North,0,0.0,0.0,19,0.00,,---,0.00,VWS V14.01,2013-05-12 03:19:00,
2013-05-11 20:25:00,70.2,26.0,29.68,North,0,0.0,0.0,19,0.00,,---,0.00,VWS V14.01,2013-05-12 03:25:00,
2013-05-11 20:31:00,69.8,25.7,29.68,North,0,0.0,0.0,19,0.00,,---,0.00,VWS V14.01,2013-05-12 03:31:00,
2013-05-11 20:37:00,69.6,29.1,29.68,North,0,0.0,0.0,22,0.00,,---,0.00,VWS V14.01,2013-05-12 03:37:00,
2013-05-11 20:42:00,69.6,29.1,29.68,North,0,0.0,0.0,22,0.00,,---,0.00,VWS V14.01,2013-05-12 03:42:00,
2013-05-11 20:48:00,69.6,29.1,29.68,North,0,0.0,0.0,22,0.00,,---,0.00,VWS V14.01,2013-05-12 03:48:00,
2013-05-11 20:54:00,69.4,29.0,29.68,North,0,0.0,0.0,22,0.00,,---,0.00,VWS V14.01,2013-05-12 03:54:00,
2013-05-11 20:59:00,68.9,28.5,29.68,North,0,0.0,0.0,22,0.00,,---,0.00,VWS V14.01,2013-05-12 03:59:00,
2013-05-11 21:01:00,68.7,28.4,29.68,North,0,0.0,0.0,22,0.00,,---,0.00,VWS V14.01,2013-05-12 04:01:00,
2013-05-11 21:02:00,68.5,28.2,29.68,North,0,0.0,0.0,22,0.00,,---,0.00,VWS V14.01,2013-05-12 04:02:00,
2013-05-11 21:03:00,68.5,28.2,29.68,North,0,0.0,0.0,22,0.00,,---,0.00,VWS V14.01,2013-05-12 04:03:00,
2013-05-11 21:05:00,68.4,28.1,29.68,North,0,0.0,0.0,22,0.00,,---,0.00,VWS V14.01,2013-05-12 04:05:00,
2013-05-11 21:10:00,68.0,27.8,29.68,North,0,0.0,0.0,22,0.00,,---,0.00,VWS V14.01,2013-05-12 04:10:00,
2013-05-11 21:16:00,67.8,28.7,29.68,North,0,0.0,0.0,23,0.00,,---,0.00,VWS V14.01,2013-05-12 04:16:00,
2013-05-11 21:21:00,67.5,28.4,29.68,North,0,0.0,0.0,23,0.00,,---,0.00,VWS V14.01,2013-05-12 04:21:00,
2013-05-11 21:22:00,67.5,28.4,29.68,North,0,0.0,0.0,23,0.00,,---,0.00,VWS V14.01,2013-05-12 04:22:00,
2013-05-11 21:28:00,67.1,28.1,29.68,North,0,0.0,0.0,23,0.00,,---,0.00,VWS V14.01,2013-05-12 04:28:00,
2013-05-11 21:34:00,66.9,27.9,29.71,North,0,0.0,0.0,23,0.00,,---,0.00,VWS V14.01,2013-05-12 04:34:00,
2013-05-11 21:39:00,66.7,27.8,29.71,North,0,0.0,0.0,23,0.00,,---,0.00,VWS V14.01,2013-05-12 04:39:00,
2013-05-11 21:44:00,66.7,27.8,29.71,North,0,0.0,0.0,23,0.00,,---,0.00,VWS V14.01,2013-05-12 04:44:00,
2013-05-11 21:49:00,66.9,27.9,29.71,North,0,0.0,0.0,23,0.00,,---,0.00,VWS V14.01,2013-05-12 04:49:00,
2013-05-11 21:55:00,66.6,27.6,29.71,North,0,0.0,0.0,23,0.00,,---,0.00,VWS V14.01,2013-05-12 04:55:00,
2013-05-11 22:00:00,66.2,28.4,29.71,North,0,0.0,0.0,24,0.00,,---,0.00,VWS V14.01,2013-05-12 05:00:00,
2013-05-11 22:06:00,66.2,28.4,29.71,North,0,0.0,0.0,24,0.00,,---,0.00,VWS V14.01,2013-05-12 05:06:00,
2013-05-11 22:11:00,66.0,28.2,29.71,North,0,0.0,0.0,24,0.00,,---,0.00,VWS V14.01,2013-05-12 05:11:00,
2013-05-11 22:17:00,65.8,28.1,29.71,North,0,0.0,0.0,24,0.00,,---,0.00,VWS V14.01,2013-05-12 05:17:00,
2013-05-11 22:22:00,65.5,27.8,29.71,North,0,0.0,0.0,24,0.00,,---,0.00,VWS V14.01,2013-05-12 05:22:00,
2013-05-11 22:27:00,65.1,27.5,29.71,North,0,0.0,0.0,24,0.00,,---,0.00,VWS V14.01,2013-05-12 05:27:00,
2013-05-11 22:32:00,64.8,27.2,29.71,North,0,0.0,0.0,24,0.00,,---,0.00,VWS V14.01,2013-05-12 05:32:00,
2013-05-11 22:37:00,64.6,28.0,29.71,North,0,0.0,0.0,25,0.00,,---,0.00,VWS V14.01,2013-05-12 05:37:00,
2013-05-11 22:43:00,64.4,27.8,29.71,North,0,0.0,0.0,25,0.00,,---,0.00,VWS V14.01,2013-05-12 05:43:00,
2013-05-11 22:48:00,64.4,27.8,29.71,North,0,0.0,0.0,25,0.00,,---,0.00,VWS V14.01,2013-05-12 05:48:00,
2013-05-11 22:53:00,64.4,27.8,29.71,North,0,0.0,0.0,25,0.00,,---,0.00,VWS V14.01,2013-05-12 05:53:00,
2013-05-11 22:58:00,64.2,27.7,29.71,North,0,0.0,0.0,25,0.00,,---,0.00,VWS V14.01,2013-05-12 05:58:00,
2013-05-11 23:04:00,64.0,27.5,29.71,North,0,0.0,0.0,25,0.00,,---,0.00,VWS V14.01,2013-05-12 06:04:00,
2013-05-11 23:10:00,63.7,27.2,29.71,North,0,0.0,0.0,25,0.00,,---,0.00,VWS V14.01,2013-05-12 06:10:00,
2013-05-11 23:16:00,63.5,27.1,29.71,North,0,0.0,0.0,25,0.00,,---,0.00,VWS V14.01,2013-05-12 06:16:00,
2013-05-11 23:22:00,63.3,26.9,29.71,North,0,0.0,0.0,25,0.00,,---,0.00,VWS V14.01,2013-05-12 06:22:00,
2013-05-11 23:27:00,63.0,27.6,29.71,North,0,0.0,0.0,26,0.00,,---,0.00,VWS V14.01,2013-05-12 06:27:00,
2013-05-11 23:33:00,62.6,27.3,29.71,North,0,0.0,0.0,26,0.00,,---,0.00,VWS V14.01,2013-05-12 06:33:00,
2013-05-11 23:38:00,62.4,28.0,29.71,North,0,0.0,0.0,27,0.00,,---,0.00,VWS V14.01,2013-05-12 06:38:00,
2013-05-11 23:43:00,62.2,27.9,29.71,North,0,0.0,0.0,27,0.00,,---,0.00,VWS V14.01,2013-05-12 06:43:00,
2013-05-11 23:48:00,61.9,27.6,29.71,North,0,0.0,0.0,27,0.00,,---,0.00,VWS V14.01,2013-05-12 06:48:00,
2013-05-11 23:54:00,61.7,27.4,29.71,North,0,0.0,0.0,27,0.00,,---,0.00,VWS V14.01,2013-05-12 06:54:00,